WB5OMR-9 Weather Reports


Display with metric or nautical units.
time (UTC)temp
F
wind
direction
speed
MPH
gust
MPH
rain 1hr
in
rain 24hr
in
rain mn
in
humidity
%
barometer
mb
20260903071317 83 157 0.0 0.0 0.00 0.00 0.00 72 1013.2
20260903070316 84 157 0.0 0.0 0.00 0.00 0.00 70 1013.2
20260903065315 84 135 0.0 0.0 0.00 0.00 0.00 69 1013.2
20260903064313 84 135 0.0 0.0 0.00 0.00 0.00 69 1013.2
20260903063312 84 157 0.0 0.0 0.00 0.00 0.00 68 1013.2
20260903062311 84 135 0.0 0.0 0.00 0.00 0.00 68 1013.5
20260903061310 85 157 0.0 0.0 0.00 0.00 0.00 67 1013.5
20260903060309 85 157 0.0 0.0 0.00 0.00 0.00 67 1013.5
20260903055307 86 157 0.0 0.0 0.00 0.00 0.00 66 1013.5
20260903054306 86 157 0.0 0.0 0.00 0.00 0.00 66 1013.5
20260903053305 86 135 0.0 0.0 0.00 0.00 0.00 65 1013.5
20260903052307 87 157 0.0 0.0 0.00 0.00 0.00 64 1013.5
20260903051303 87 90 0.0 0.0 0.00 0.00 0.00 63 1013.2
20260903050302 87 157 0.0 0.0 0.00 0.00 0.00 63 1013.2
20260903045300 88 157 0.0 0.0 0.00 0.00 0.00 62 1012.9
20260903044259 88 157 0.0 0.0 0.00 0.00 0.00 61 1012.9
20260903043258 89 157 0.0 0.0 0.00 0.00 0.00 59 1012.5
20260903042256 89 157 0.0 0.0 0.00 0.00 0.00 58 1012.5
20260903041255 89 112 0.0 0.0 0.00 0.00 0.00 57 1012.9
20260903040212 90 157 0.0 0.0 0.00 0.00 0.00 56 1013.2
20260903035129 90 135 0.0 0.0 0.00 0.00 0.00 55 1013.2
20260903034128 91 135 0.0 0.0 0.00 0.00 0.00 54 1013.2
20260903033044 91 135 0.0 0.0 0.00 0.00 0.00 50 1013.5
20260903032042 91 157 0.0 0.0 0.00 0.00 0.00 48 1012.9
20260903031041 91 112 0.0 0.0 0.00 0.00 0.00 46 1012.5
20260903030040 91 157 0.0 0.0 0.00 0.00 0.00 42 1012.5
20260903025038 91 135 0.0 0.0 0.00 0.00 0.00 41 1011.9
20260903024038 92 112 0.0 0.0 0.00 0.00 0.00 41 1011.9
20260903023036 92 112 0.0 0.0 0.00 0.00 0.00 41 1011.9
20260903022035 93 135 0.0 0.0 0.00 0.00 0.00 41 1011.5
20260903020952 93 135 0.0 0.0 0.00 0.00 0.00 39 1011.5
20260903015909 94 135 0.0 0.0 0.00 0.00 0.00 39 1011.5
20260903014908 95 135 0.0 0.0 0.00 0.00 0.00 38 1011.5
20260903013825 95 135 0.0 0.0 0.00 0.00 0.00 37 1011.2
20260903012742 96 135 0.0 0.0 0.00 0.00 0.00 37 1011.2
20260903011740 97 135 0.0 0.0 0.00 0.00 0.00 36 1011.2
20260903010739 98 112 0.0 0.0 0.00 0.00 0.00 36 1010.8
20260903005739 98 112 0.0 0.0 0.00 0.00 0.00 34 1011.2
20260903004737 99 135 0.0 0.0 0.00 0.00 0.00 35 1010.8
20260903003736 100 135 0.0 0.0 0.00 0.00 0.00 33 1011.2
20260903002735 101 157 0.0 0.0 0.00 0.00 0.00 33 1011.2
20260903001734 101 157 0.0 0.0 0.00 0.00 0.00 33 1011.2
20260903000733 102 112 0.0 0.0 0.00 0.00 0.00 32 1011.2
20260902235732 103 157 0.0 0.0 0.00 0.00 0.00 32 1011.2
20260902234731 103 157 0.0 0.0 0.00 0.00 0.00 31 1011.2
20260902233730 104 67 0.0 0.0 0.00 0.00 0.00 31 1011.2
20260902232729 105 247 0.0 0.0 0.00 0.00 0.00 30 1011.5
20260902231727 106 247 0.0 0.0 0.00 0.00 0.00 30 1011.2
20260902230727 106 112 0.0 0.0 0.00 0.00 0.00 30 1011.5
20260902225725 106 247 0.0 0.0 0.00 0.00 0.00 30 1011.5
20260902224724 106 247 0.0 0.0 0.00 0.00 0.00 29 1011.5
20260902223723 108 157 0.0 0.0 0.00 0.00 0.00 28 1011.5
20260902222639 108 247 0.0 0.0 0.00 0.00 0.00 28 1011.5
20260902221555 107 135 0.0 0.0 0.00 0.00 0.00 27 1011.5
20260902220511 108 135 0.0 0.0 0.00 0.00 0.00 28 1011.5
20260902215428 110 112 0.0 0.0 0.00 0.00 0.00 28 1011.5
20260902214427 111 247 0.0 0.0 0.00 0.00 0.00 27 1011.5
20260902213343 111 247 0.0 0.0 0.00 0.00 0.00 27 1011.9
20260902212342 112 180 0.0 0.0 0.00 0.00 0.00 26 1011.9
20260902211340 111 247 0.0 0.0 0.00 0.00 0.00 27 1011.9
20260902210257 111 247 0.0 0.0 0.00 0.00 0.00 27 1012.2
20260902205213 110 157 0.0 0.0 0.00 0.00 0.00 27 1012.2
20260902204129 110 157 0.0 0.0 0.00 0.00 0.00 27 1012.5
20260902203128 110 157 0.0 0.0 0.00 0.00 0.00 28 1012.5
20260902202045 111 112 0.0 0.0 0.00 0.00 0.00 29 1012.5
20260902201002 111 157 0.0 0.0 0.00 0.00 0.00 29 1012.9
20260902195918 110 247 0.0 0.0 0.00 0.00 0.00 30 1013.2
20260902194917 109 135 0.0 0.0 0.00 0.00 0.00 31 1013.2
20260902193916 109 292 0.0 0.0 0.00 0.00 0.00 31 1013.2
20260902192915 108 180 0.0 0.0 0.00 0.00 0.00 33 1013.5
20260902191915 108 247 0.0 0.0 0.00 0.00 0.00 33 1013.9
20260902190913 106 0 0.0 0.0 0.00 0.00 0.00 35 1013.9
20260902185913 107 135 0.0 0.0 0.00 0.00 0.00 34 1014.2
20260902184912 107 67 0.0 0.0 0.00 0.00 0.00 35 1014.2
20260902183910 106 157 0.0 0.0 0.00 0.00 0.00 35 1014.2
20260902182909 106 247 0.0 0.0 0.00 0.00 0.00 37 1014.6
20260902181826 105 247 0.0 0.0 0.00 0.00 0.00 38 1014.9
20260902180743 105 225 0.0 0.0 0.00 0.00 0.00 38 1015.2
20260902175700 104 0 0.0 0.0 0.00 0.00 0.00 39 1015.6
20260902174659 104 180 0.0 0.0 0.00 0.00 0.00 39 1016.3
20260902173658 103 270 0.0 0.0 0.00 0.00 0.00 39 1015.6
20260902172657 102 225 0.0 0.0 0.00 0.00 0.00 41 1014.9
20260902171656 101 202 0.0 0.0 0.00 0.00 0.00 43 1014.9
20260902170655 101 247 0.0 0.0 0.00 0.00 0.00 46 1015.6
20260902165611 101 157 0.0 0.0 0.00 0.00 0.00 47 1015.6
20260902164610 100 157 0.0 0.0 0.00 0.00 0.00 49 1015.9
20260902163526 98 157 0.0 0.0 0.00 0.00 0.00 51 1015.9
20260902162526 97 180 0.0 0.0 0.00 0.00 0.00 52 1015.9
20260902161525 97 247 0.0 0.0 0.00 0.00 0.00 54 1015.9
20260902160524 96 270 0.0 0.0 0.00 0.00 0.00 56 1015.9
20260902155522 94 202 0.0 0.0 0.00 0.00 0.00 57 1015.9
20260902154520 94 157 0.0 0.0 0.00 0.00 0.00 59 1015.9
20260902153519 92 247 0.0 0.0 0.00 0.00 0.00 61 1015.9
20260902152516 91 247 0.0 0.0 0.00 0.00 0.00 63 1016.3
20260902151516 90 247 0.0 0.0 0.00 0.00 0.00 65 1016.3
20260902150514 89 247 0.0 0.0 0.00 0.00 0.00 67 1015.9
20260902145514 88 247 0.0 0.0 0.00 0.00 0.00 68 1016.3
20260902144512 88 202 0.0 0.0 0.00 0.00 0.00 69 1016.3
20260902143428 87 157 0.0 0.0 0.00 0.00 0.00 70 1016.3
20260902142428 86 135 0.0 0.0 0.00 0.00 0.00 72 1015.9
20260902141344 85 135 0.0 0.0 0.00 0.00 0.00 75 1015.9
20260902140343 83 90 0.0 0.0 0.00 0.00 0.00 76 1015.6
20260902135343 82 112 0.0 0.0 0.00 0.00 0.00 78 1015.9
20260902134342 81 135 0.0 0.0 0.00 0.00 0.00 79 1015.9
20260902133341 80 90 0.0 0.0 0.00 0.00 0.00 80 1015.9
20260902132339 79 67 0.0 0.0 0.00 0.00 0.00 79 1015.9
20260902131339 78 67 0.0 0.0 0.00 0.00 0.00 78 1015.9
20260902130337 77 67 0.0 0.0 0.00 0.00 0.00 77 1015.6
20260902125336 77 90 0.0 0.0 0.00 0.00 0.00 77 1015.6
20260902124253 77 90 0.0 0.0 0.00 0.00 0.00 77 1015.2
20260902123210 77 90 0.0 0.0 0.00 0.00 0.00 76 1015.2
20260902122209 77 90 0.0 0.0 0.00 0.00 0.00 76 1015.2
20260902121208 78 90 0.0 0.0 0.00 0.00 0.00 76 1015.2
20260902120207 78 90 0.0 0.0 0.00 0.00 0.00 76 1015.2
20260902115205 78 90 0.0 0.0 0.00 0.00 0.00 75 1015.2
20260902114204 78 90 0.0 0.0 0.00 0.00 0.00 75 1015.2
20260902113121 79 90 0.0 0.0 0.00 0.00 0.00 75 1015.2
20260902112038 79 90 0.0 0.0 0.00 0.00 0.00 75 1015.2
20260902111037 79 90 0.0 0.0 0.00 0.00 0.00 74 1015.2
20260902105954 79 112 0.0 0.0 0.00 0.00 0.00 74 1014.9
20260902104910 79 112 0.0 0.0 0.00 0.00 0.00 73 1014.9
20260902103825 79 135 0.0 0.0 0.00 0.00 0.00 72 1015.2
20260902102824 79 135 0.0 0.0 0.00 0.00 0.00 72 1015.2
20260902101823 79 135 0.0 0.0 0.00 0.00 0.00 72 1015.2
20260902100822 79 135 0.0 0.0 0.00 0.00 0.00 72 1014.9
20260902095821 80 135 0.0 0.0 0.00 0.00 0.00 72 1015.2
20260902094819 80 135 0.0 0.0 0.00 0.00 0.00 71 1014.9
20260902093818 80 135 0.0 0.0 0.00 0.00 0.00 71 1015.2
20260902092817 80 135 0.0 0.0 0.00 0.00 0.00 70 1015.2
20260902091816 80 135 0.0 0.0 0.00 0.00 0.00 69 1014.9
20260902090815 80 135 0.0 0.0 0.00 0.00 0.00 69 1014.9
20260902085814 81 135 0.0 0.0 0.00 0.00 0.00 69 1015.2
20260902084813 81 135 0.0 0.0 0.00 0.00 0.00 69 1015.2
20260902083729 81 135 0.0 0.0 0.00 0.00 0.00 69 1015.2
20260902082728 81 135 0.0 0.0 0.00 0.00 0.00 70 1015.2
20260902081727 81 135 0.0 0.0 0.00 0.00 0.00 70 1014.9
20260902080726 81 112 0.0 0.0 0.00 0.00 0.00 69 1014.9
20260902075726 81 157 0.0 0.0 0.00 0.00 0.00 68 1015.2
20260902074724 81 135 0.0 0.0 0.00 0.00 0.00 69 1015.2
20260902073723 82 157 0.0 0.0 0.00 0.00 0.00 68 1015.2
20260902072640 82 112 0.0 0.0 0.00 0.00 0.00 67 1015.2